Regional Weather Roundup
Issued by NWS

Home | Current Version | Previous Version | Text Only | Print | Product List | Glossary Off
Versions: 1 2 3 4 5 6 7 8 9 10 11 12 13 14 15 16 17 18 19 20 21 22 23 24 25 26 27 28 29 30 31 32 33 34 35 36 37 38 39 40 41 42 43 44 45 46 47 48 49 50

000
ASUS43 KDMX 161307
RWRIA

WEATHER ROUNDUP FOR IOWA
NATIONAL WEATHER SERVICE DES MOINES IA
800 AM CDT TUE SEP 16 2014

NOTE: "FAIR" INDICATES FEW OR NO CLOUDS BELOW 12,000 FEET WITH NO
SIGNIFICANT WEATHER AND/OR OBSTRUCTIONS TO VISIBILITY.

* - THESE STATIONS ARE NOT NWS STATIONS...THUS NOT UNDER NWS
QUALITY CONTROL.  THEY ALSO DO NOT REPORT WEATHER SUCH
AS PRECIPITATION OR FOG.

IAZ001>003-012>014-020>022-031>034-043>046-161400-
   NORTHWEST IOWA

CITY           SKY/WX    TMP DP  RH WIND       PRES   REMARKS
CARROLL *      SUNNY     39  39 100 CALM      30.24S FOG
CHEROKEE *     CLEAR     36  36 100 CALM      30.23S
DENISON *      CLEAR     39  39 100 CALM      30.22S
LE MARS *      CLEAR     39  39 100 CALM      30.22S
ORANGE CITY *  CLEAR     41  37  87 CALM      30.21S
SHELDON *      CLEAR     39  37  93 SE3       30.20S
SIOUX CITY     PTCLDY    40  40 100 SE3       30.23S
SPENCER        CLEAR     38  36  92 CALM      30.22S
STORM LAKE *   CLEAR     43  43 100 S5        30.22F
$$

IAZ055>058-069>071-079>083-090>094-161400-
   SOUTHWEST IOWA

CITY           SKY/WX    TMP DP  RH WIND       PRES   REMARKS
ATLANTIC *     FOG       39  39 100 CALM      30.25S VSB 0
AUDUBON *      SUNNY     41  37  87 CALM      30.25F
CLARINDA *     FOG       39  39 100 CALM      30.28S VSB 1/4
COUNCIL BLFS * CLEAR     46  46 100 SE5       30.23S
CRESTON *      SUNNY     43  43 100 CALM      30.26S
HARLAN  *      FOG       39  39 100 CALM      30.28S VSB 0
LAMONI         SUNNY     47  44  90 CALM      30.26R
SHENANDOAH *   PTCLDY    41  41 100 CALM      30.27S
$$

IAZ047>049-059>061-072>074-084-161400-
   CENTRAL IOWA

CITY           SKY/WX    TMP DP  RH WIND       PRES   REMARKS
AMES           SUNNY     41  40  96 CALM      30.25R
ANKENY *         N/A     41  41 100 CALM      30.25S
CHARITON *     SUNNY     45  45 100 CALM      30.26S
DES MOINES     SUNNY     48  44  86 CALM      30.25S
GRINNELL*      SUNNY     45  43  93 CALM      30.25S
KNOXVILLE *    SUNNY     43  43 100 CALM      30.24S FOG
MARSHALLTOWN   SUNNY     41  40  96 CALM      30.24S
PELLA *        SUNNY     45  45 100 CALM      30.27R FOG
PERRY *          N/A     43  43 100 CALM      30.25S
$$

IAZ004>006-015-016-023>025-035-036-161400-
   NORTH CENTRAL IOWA

CITY           SKY/WX    TMP DP  RH WIND       PRES   REMARKS
ALGONA *       SUNNY     45  41  87 SW7       30.23S
CLARION *        N/A     39  39 100 CALM      30.23F
ESTHERVILLE    SUNNY     41  39  93 SW6       30.21S
FORT DODGE *   SUNNY     39  37  93 CALM      30.24S
MASON CITY     SUNNY     40  40 100 CALM      30.24S
FOREST CITY *  SUNNY     37  37 100 CALM      30.22F
IOWA FALLS *     N/A     39  37  93 CALM      30.24F
$$

IAZ007>011-017>019-026>030-037>042-050>054-066-161400-
   NORTHEAST IOWA

CITY           SKY/WX    TMP DP  RH WIND       PRES   REMARKS
CEDAR RAPIDS   SUNNY     43  43 100 CALM      30.24S
CHARLES CITY * SUNNY     41  41 100 CALM      30.24S
CLINTON *      SUNNY     41  39  93 CALM      30.27S
DECORAH *      SUNNY     43  41  93 CALM      30.23R
DUBUQUE        SUNNY     41  40  96 CALM      30.24R
MONTICELLO *   SUNNY     39  39 100 CALM      30.24F
OELWEIN *      SUNNY     41  41 100 CALM      30.24F FOG
WATERLOO       SUNNY     38  37  97 CALM      30.23F
$$

IAZ064-065-067-068-078-161400-
   EAST CENTRAL IOWA

CITY           SKY/WX    TMP DP  RH WIND       PRES   REMARKS
DAVENPORT      SUNNY     43  41  93 CALM      30.25R
IOWA CITY      SUNNY     45  44  97 CALM      30.26S
MT. PLEASANT * SUNNY     45  45 100 CALM      30.26S
MUSCATINE *      N/A     45  43  93 CALM      30.26S
QUAD CITIES    SUNNY     46  44  93 CALM      30.25R
$$

IAZ062-063-075>077-085>089-095>099-161400-
   SOUTHEAST IOWA

CITY           SKY/WX    TMP DP  RH WIND       PRES   REMARKS
BURLINGTON     SUNNY     48  47  96 CALM      30.25S
FAIRFIELD *    SUNNY     45  43  93 CALM      30.26S
FORT MADISON * SUNNY     48  48 100 CALM      30.26S
KEOKUK *       SUNNY     46  46 100 CALM      30.25S FOG
OSKALOOSA *      N/A     43  41  93 CALM      30.26R
CENTERVILLE *  SUNNY     45  45 100 CALM      30.27S FOG
OTTUMWA        SUNNY     44  43  96 CALM      30.26R
WASHINGTON *   SUNNY     45  45 100 CALM      30.25F FOG
$$

ABBREVIATIONS USED IN REMARKS
   TC - TEMPERATURES IN CELSIUS
  WCI - WIND CHILL INDEX
   HX - HEAT INDEX
  VSB - VISIBILITY
$$



USA.gov is the U.S. government's official web portal to all federal, state and local government web resources and services.